World > North America > United States > Alabama   City of Hoover, Alabama

Hourly Hoover, AL Regional Weather

Feedback E-mail the Weather

Latest News

Hoover, AL Weather Maps

°F °C°F °C
Hoover Weather Map
UTC Time: 5/21/2022, 03:20
Your Time:

Hoover, AL Regional Weather

Expires:202205210400;;305132
ASUS44 KBMX 210310
RWRAL 
             
ALABAMA REGIONAL WEATHER ROUNDUP
NATIONAL WEATHER SERVICE BIRMINGHAM AL
1000 PM CDT FRI MAY 20 2022

NOTE: "FAIR" INDICATES FEW OR NO CLOUDS BELOW 12,000 FEET
WITH NO SIGNIFICANT WEATHER AND/OR OBSTRUCTIONS TO VISIBILITY.

THE REMARK "TC" DENOTES TEMPERATURE IN DEGREES CELSIUS.


ALZ015-024>026-033>036-041>044-210400-
CENTRAL ALABAMA
  
CITY           SKY/WX    TMP DP  RH WIND       PRES   REMARKS
BIRMINGHAM     MOCLDY    81  68  64 S9G22     30.00R                  
MONTGOMERY     CLEAR     76  70  82 SE6       29.99R                  
SHELBY CO ARPT CLEAR     76  70  82 SE8       29.98R                  
MAXWELL AFB    CLEAR     76  70  83 SE6       29.97R                  
GREENVILLE     FAIR      72  70  93 S7        29.99R                  
SELMA          FAIR      75  70  83 SE5       29.96R                  
PRATTVILLE     FAIR      75  70  83 CALM      29.98R                  
BESSEMER       FAIR      75  70  84 SE7       29.99R                  
TALLADEGA      FAIR     N/A N/A N/A S7        30.00R                  
PELL CITY      CLEAR     77  70  78 S6        29.99R                  
SYLACAUGA      CLOUDY    75  71  87 S8        30.01R                  
$$
 

SKY/WX - Weather  TMP - Temperature  DP - Dew Point  RH - Humidity
WIND - Wind Direction/Speed PRES - Barometric Pressure VSB - Visibility
WCI - Wind Chill Index E13G22 Wind - East Wind 13 mph/Gusts of 22 mph

Trending Headlines

Hoover Radar Loop



Hoover Quick Facts


National Two Day Weather Forecast


E-mail the Hoover Weather Forecast

Voice your opinion or tell us about page issues...